Weather History for KPMP - April, 2013

Change the Weather History Date:

Friday, April 5, 2013

  Actual Average Record
Temperature  
Mean Temperature 70 °F -  
Max Temperature 73 °F 83 °F 93 °F (1977)
Min Temperature 66 °F 64 °F 45 °F (1951)
Cooling Degree Days 4    
Growing Degree Days 20 (Base 50)    
Moisture  
Dew Point 67 °F    
Average Humidity 95    
Maximum Humidity 100    
Minimum Humidity 81    
Precipitation  
Precipitation 1.11 in - - ()
Sea Level Pressure  
Sea Level Pressure 29.93 in    
Wind  
Wind Speed 7 mph (WSW)    
Max Wind Speed 15 mph    
Max Gust Speed 21 mph    
Visibility 9 miles    
Events Rain , Thunderstorm    
Averages and records for this station are not official NWS values.
T = Trace of Precipitation, MM = Missing Value Source: NWS Daily Summary

Daily Weather History Graph

Daily Weather History Graph

Search for Another Location

Airport or City:

Trip Planner

Search our weather history database for the weather conditions in past years. The results will help you decide how hot, cold, wet, or windy it might be!

Date:

Astronomy

Apr. 05, 2013 Rise Set
Actual Time 7:07 AM EDT 7:39 PM EDT
Civil Twilight 6:43 AM EDT 8:02 PM EDT
Nautical Twilight 6:16 AM EDT 8:30 PM EDT
Astronomical Twilight 5:48 AM EDT 8:57 PM EDT
Moon 3:46 AM EDT (4/5) 3:26 PM EDT (4/5)
Length of Visible Light 13h 19m
Length of Day
12h 32m
Waning Crescent, 24% of the Moon is Illuminated
Apr 5
Waning Crescent
Apr 10
New
Apr 18
First Quarter
Apr 25
Full
May 2
Last Quarter

Hourly Weather History & Observations

Time (EDT) Temp. Dew Point Humidity Pressure Visibility Wind Dir Wind Speed Gust Speed Precip Events Conditions
12:31 AM 73.4 °F 73.4 °F 100% 29.99 in 10.0 mi West 5.8 mph - 0.00 in   Overcast
12:53 AM 73.0 °F 73.0 °F 100% 29.99 in 10.0 mi Calm Calm - 0.00 in   Mostly Cloudy
1:03 AM 73.4 °F 71.6 °F 94% 29.98 in 10.0 mi SW 3.5 mph - N/A   Mostly Cloudy
1:23 AM 71.6 °F 71.6 °F 100% 29.97 in 10.0 mi WNW 12.7 mph - N/A Thunderstorm Mostly Cloudy
1:27 AM 71.6 °F 71.6 °F 100% 29.97 in 10.0 mi WNW 13.8 mph - N/A Thunderstorm Mostly Cloudy
1:42 AM 71.6 °F 71.6 °F 100% 29.96 in 10.0 mi NW 6.9 mph - N/A   Overcast
1:53 AM 71.1 °F 71.1 °F 100% 29.96 in 10.0 mi NW 4.6 mph - N/A Thunderstorm Overcast
2:12 AM 69.8 °F 69.8 °F 100% 29.96 in 3.0 mi WNW 13.8 mph 18.4 mph 0.10 in Rain , Thunderstorm Heavy Rain
2:18 AM 69.8 °F 68.0 °F 94% 29.95 in 1.8 mi West 13.8 mph - 0.20 in Rain , Thunderstorm Heavy Rain
2:27 AM 68.0 °F 66.2 °F 94% 29.92 in 2.0 mi NW 10.4 mph - 0.32 in Rain Heavy Rain
2:37 AM 68.0 °F 66.2 °F 94% 29.93 in 10.0 mi WSW 4.6 mph - 0.33 in Rain , Thunderstorm Light Rain
2:53 AM 68.0 °F 66.0 °F 93% 29.93 in 10.0 mi WSW 5.8 mph - 0.33 in Rain Light Rain
3:05 AM 68.0 °F 66.2 °F 94% 29.95 in 10.0 mi SSW 6.9 mph - 0.00 in Rain , Thunderstorm Light Rain
3:53 AM 66.9 °F 66.0 °F 97% 29.96 in 10.0 mi WNW 4.6 mph - 0.09 in Rain , Thunderstorm Light Rain
4:10 AM 66.2 °F 66.2 °F 100% 29.97 in 10.0 mi South 3.5 mph - 0.01 in Rain Light Rain
4:53 AM 66.9 °F 66.9 °F 100% 29.99 in 6.0 mi SW 6.9 mph - 0.10 in Rain Rain
5:53 AM 66.9 °F 66.9 °F 100% 29.93 in 8.0 mi SE 11.5 mph - 0.12 in Rain Light Rain
6:53 AM 66.0 °F 66.0 °F 100% 29.94 in 5.0 mi SSE 6.9 mph - 0.10 in Rain Rain
7:53 AM 68.0 °F 66.9 °F 96% 29.90 in 10.0 mi SSE 8.1 mph - 0.10 in   Mostly Cloudy
8:53 AM 71.1 °F 66.9 °F 87% 29.89 in 10.0 mi SSE 12.7 mph - N/A   Overcast
9:53 AM 73.0 °F 68.0 °F 84% 29.95 in 10.0 mi SW 4.6 mph - N/A   Mostly Cloudy
10:53 AM 71.1 °F 68.0 °F 90% 29.96 in 10.0 mi NNW 8.1 mph - 0.00 in   Overcast
11:53 AM 72.0 °F 66.9 °F 84% 29.96 in 10.0 mi SW 3.5 mph - 0.00 in Rain Light Rain
12:53 PM 73.0 °F 66.9 °F 81% 29.93 in 10.0 mi SW 6.9 mph - 0.00 in   Mostly Cloudy
1:53 PM 72.0 °F 66.0 °F 81% 29.91 in 10.0 mi West 10.4 mph - 0.00 in Rain Light Rain
2:53 PM 70.0 °F 66.0 °F 87% 29.90 in 7.0 mi WSW 12.7 mph 19.6 mph 0.03 in Rain Rain
3:53 PM 66.9 °F 64.9 °F 93% 29.91 in 10.0 mi WSW 15.0 mph 20.7 mph 0.08 in Rain Light Rain
4:53 PM 66.0 °F 64.9 °F 96% 29.88 in 5.0 mi SSW 12.7 mph 18.4 mph 0.10 in Rain Rain
5:53 PM 66.0 °F 66.0 °F 100% 29.88 in 10.0 mi WSW 9.2 mph - 0.06 in Rain Light Rain
6:06 PM 66.2 °F 66.2 °F 100% 29.85 in 10.0 mi WSW 6.9 mph - N/A   Mostly Cloudy
6:32 PM 66.2 °F 64.4 °F 94% 29.84 in 10.0 mi West 10.4 mph - N/A   Scattered Clouds
6:53 PM 66.0 °F 64.9 °F 96% 29.85 in 10.0 mi WSW 8.1 mph - N/A   Clear
7:53 PM 66.9 °F 66.0 °F 97% 29.86 in 10.0 mi West 5.8 mph - N/A   Clear
8:53 PM 66.0 °F 66.0 °F 100% 29.88 in 10.0 mi West 6.9 mph - N/A   Clear
9:53 PM 66.0 °F 66.0 °F 100% 29.90 in 10.0 mi WSW 5.8 mph - N/A   Partly Cloudy
10:53 PM 66.9 °F 66.9 °F 100% 29.93 in 10.0 mi West 6.9 mph - N/A   Overcast
11:53 PM 66.9 °F 66.0 °F 97% 29.94 in 10.0 mi WNW 10.4 mph - N/A   Overcast